Logan, UT

12:50 PM MDT on September 24, 2017 (GMT -0600)
Logan-Cache

Weather History for KLGU - August, 2013

Change the Weather History Date:

Wednesday, August 14, 2013

  Actual Average Record
Temperature  
Mean Temperature 70 °F -  
Max Temperature 93 °F 87 °F 100 °F (2003)
Min Temperature 50 °F 53 °F 39 °F (1959)
Cooling Degree Days 6    
Growing Degree Days 20 (Base 50)    
Moisture  
Dew Point 37 °F    
Average Humidity 36    
Maximum Humidity 74    
Minimum Humidity 8    
Precipitation  
Precipitation 0.00 in - - ()
Sea Level Pressure  
Sea Level Pressure 29.95 in    
Wind  
Wind Speed 3 mph (West)    
Max Wind Speed 9 mph    
Max Gust Speed -    
Visibility 10 miles    
Events      
Averages and records for this station are not official NWS values.
T = Trace of Precipitation, MM = Missing Value Source: NWS Daily Summary

Daily Weather History Graph

Daily Weather History Graph

Search for Another Location

Airport or City:

Trip Planner

Search our weather history database for the weather conditions in past years. The results will help you decide how hot, cold, wet, or windy it might be!

Date:

Astronomy

Aug. 14, 2013 Rise Set
Actual Time 6:34 AM MDT 8:28 PM MDT
Civil Twilight 6:04 AM MDT 8:58 PM MDT
Nautical Twilight 5:28 AM MDT 9:34 PM MDT
Astronomical Twilight 4:48 AM MDT 10:14 PM MDT
Moon 2:45 PM MDT (8/14) 12:00 AM MDT (8/14)
Length of Visible Light 14h 53m
Length of Day
13h 53m
First Quarter, 53% of the Moon is Illuminated
Aug 14
First Quarter
Aug 20
Full
Aug 28
Last Quarter
Sep 5
New
Sep 12
First Quarter

Hourly Weather History & Observations

Time (MDT) Temp. Dew Point Humidity Pressure Visibility Wind Dir Wind Speed Gust Speed Precip Events Conditions
12:51 AM 73.0 °F 35.1 °F 25% 29.96 in 10.0 mi Variable 3.5 mph - N/A   Clear
1:51 AM 55.9 °F 43.0 °F 62% 29.99 in 10.0 mi North 4.6 mph - N/A   Clear
2:51 AM 54.0 °F 43.0 °F 66% 29.97 in 10.0 mi NW 5.8 mph - N/A   Clear
3:51 AM 53.1 °F 43.0 °F 69% 29.98 in 10.0 mi South 4.6 mph - N/A   Clear
4:51 AM 53.1 °F 42.1 °F 66% 29.99 in 10.0 mi WNW 3.5 mph - N/A   Clear
5:51 AM 50.0 °F 42.1 °F 74% 29.99 in 10.0 mi Calm Calm - N/A   Clear
6:51 AM 51.1 °F 41.0 °F 68% 30.01 in 10.0 mi Calm Calm - N/A   Clear
7:51 AM 55.0 °F 44.1 °F 67% 30.03 in 10.0 mi Calm Calm - N/A   Clear
8:51 AM 63.0 °F 43.0 °F 48% 30.02 in 10.0 mi NNW 3.5 mph - N/A   Clear
9:51 AM 69.1 °F 39.9 °F 35% 30.02 in 10.0 mi Calm Calm - N/A   Clear
10:51 AM 73.9 °F 42.1 °F 32% 30.00 in 10.0 mi North 4.6 mph - N/A   Clear
11:51 AM 79.0 °F 42.1 °F 27% 29.96 in 10.0 mi North 6.9 mph - N/A   Clear
12:51 PM 84.0 °F 41.0 °F 22% 29.94 in 10.0 mi North 3.5 mph - N/A   Clear
1:51 PM 88.0 °F 35.1 °F 15% 29.95 in 10.0 mi Calm Calm - N/A   Clear
2:51 PM 91.0 °F 28.9 °F 11% 29.93 in 10.0 mi Calm Calm - N/A   Clear
3:51 PM 91.9 °F 27.0 °F 10% 29.91 in 10.0 mi SSW 6.9 mph - N/A   Clear
4:51 PM 91.0 °F 27.0 °F 10% 29.90 in 10.0 mi Calm Calm - N/A   Clear
5:51 PM 91.9 °F 30.0 °F 11% 29.89 in 10.0 mi SSW 9.2 mph - N/A   Clear
6:51 PM 91.9 °F 23.0 °F 8% 29.87 in 10.0 mi SSW 8.1 mph - N/A   Clear
7:51 PM 87.1 °F 28.9 °F 12% 29.87 in 10.0 mi SSE 6.9 mph - N/A   Clear
8:51 PM 73.9 °F 39.0 °F 28% 29.88 in 10.0 mi Calm Calm - N/A   Clear
9:51 PM 73.9 °F 35.1 °F 24% 29.89 in 10.0 mi SSW 3.5 mph - N/A   Clear
10:51 PM 69.1 °F 35.1 °F 29% 29.90 in 10.0 mi SSW 5.8 mph - N/A   Clear
11:51 PM 61.0 °F 39.9 °F 46% 29.92 in 10.0 mi Calm Calm - N/A   Clear